Location: Clanezzo
(45.7500°N, 9.6000°E)
Time: 10:57:41
(UTC+00:00)

Gbstr 26 Del rocket - Pass Details

Date: 26 September 2021
Orbit: 492 x 1263 km, 51.8° (Epoch: 25 October)

Event Time Altitude Azimuth Distance (km) Brightness Sun altitude
Rises 19:24:29 0° 221° (SW) 3,827 7.3 -23.5°
Reaches altitude 10° 19:27:04 10° 217° (SW) 2,967 6.7 -23.9°
Maximum altitude 19:34:18 60° 140° (SE) 1,371 4.4 -25.1°
Enters shadow 19:36:38 45° 87° (E) 1,641 4.7 -25.4°
